Wind_Speed
44 43 45 43 43 44 41 40 43 42 41 40 40 38 39 40 40 43 45 40 42 35 25 30 37 44 52 59 60 56 54 55 55 55 47 39 37 37 38 40 42 45 48 52
54 52 49 48 46 47 48 44 42 43 44 43 45 42 43 43 43 45 47 38 30 28 28 37 43 51 57 55 52 52 53 54 53 45 38 36 36 38 41 43 45 50 53 54
62 61 60 56 51 51 53 52 50 49 50 46 43 43 42 45 49 49 52 30 27 35 39 43 48 54 51 48 51 53 53 52 45 37 36 36 38 41 43 46 48 52 54 53
60 63 65 64 63 60 59 58 58 56 56 57 54 53 52 53 55 53 56 39 35 35 36 41 47 47 48 50 51 50 49 43 36 35 36 38 41 43 46 49 51 52 51 50
55 61 65 65 65 64 62 61 61 59 59 62 65 66 66 60 54 55 60 54 43 38 40 44 46 47 48 48 46 47 42 35 34 36 37 40 43 45 48 50 50 51 50 50
48 54 59 57 54 56 55 54 56 56 55 56 58 60 58 51 47 48 50 47 42 43 42 41 43 45 45 43 43 40 35 33 35 37 40 42 44 46 48 49 51 52 51 49
40 44 47 47 44 44 46 47 44 40 39 44 42 39 40 37 36 39 41 38 37 36 36 38 40 41 41 41 38 33 32 34 35 38 41 42 44 46 47 50 52 50 46 44
35 37 40 39 40 41 42 43 39 37 38 32 25 25 30 35 37 38 36 32 32 33 34 35 37 38 37 35 31 30 32 34 36 39 40 42 43 45 48 50 49 45 43 43
35 35 35 38 40 39 43 44 39 40 41 31 20 18 18 21 22 25 27 28 30 32 33 34 34 33 31 29 28 30 32 34 37 38 40 42 43 45 47 47 44 42 41 37
28 29 29 30 33 32 30 37 41 39 27 25 19 17 18 20 24 26 27 28 30 32 31 30 30 27 24 24 27 29 32 35 37 38 40 42 43 44 45 43 41 39 35 29
22 21 23 23 25 23 19 13 20 24 17 13 13 15 21 25 25 25 27 28 27 26 27 26 23 19 20 23 26 29 33 35 37 39 42 43 42 43 43 40 37 34 29 24
14 14 12 11 15 9 8 9 13 8 9 15 18 22 23 24 23 23 23 22 22 23 23 20 15 16 20 23 26 30 33 35 36 40 42 42 41 42 41 37 34 31 28 25
11 21 17 10 4 7 7 4 6 8 9 13 18 21 20 19 18 17 17 19 20 19 14 11 11 15 19 24 27 30 33 35 37 41 41 40 40 41 38 33 32 30 27 23
17 15 11 7 1 3 7 8 9 8 7 8 10 11 11 12 13 14 15 15 14 10 6 8 12 15 20 25 28 31 33 35 37 39 39 39 39 38 35 32 32 30 26 21
17 16 14 14 16 15 13 12 11 11 9 8 7 6 7 11 14 14 12 9 4 3 5 9 12 16 22 25 27 30 33 34 36 37 38 38 36 36 34 32 31 29 26 22
20 14 14 12 10 8 7 8 10 10 9 7 7 8 11 13 12 10 5 2 1 2 5 8 13 18 21 25 26 28 32 33 35 36 36 35 34 35 34 32 30 27 24 21
26 23 15 7 3 4 6 9 11 10 10 9 10 10 10 10 8 3 4 4 1 2 5 10 15 19 22 24 27 29 31 32 33 33 33 34 33 34 34 32 29 27 24 22
21 18 15 8 6 8 10 13 14 11 10 10 9 9 9 8 3 4 6 5 2 2 7 12 16 20 22 24 26 28 30 31 31 31 33 34 34 33 32 31 30 28 26 24
12 12 12 12 11 11 12 14 13 10 8 7 9 9 8 5 5 8 8 6 3 4 9 13 17 21 23 26 28 29 29 30 31 32 33 33 33 32 31 29 29 28 26 24
17 16 15 15 14 11 13 15 11 10 9 7 8 8 6 7 9 10 10 7 4 5 9 15 19 22 24 27 29 29 29 30 32 34 34 34 32 29 27 27 27 27 26 25
17 17 17 18 15 13 14 14 13 11 8 7 7 5 5 8 12 12 11 8 5 6 11 16 20 23 25 27 28 29 31 32 34 36 37 35 31 28 25 24 24 25 26 25
19 19 19 17 15 14 14 14 12 10 9 9 6 4 8 13 15 14 11 7 6 8 12 16 20 24 26 28 29 30 32 35 38 39 38 35 31 28 23 21 21 22 23 24
17 16 16 17 17 17 18 16 12 10 9 9 6 7 13 17 17 15 12 9 6 9 12 15 19 22 25 27 29 31 34 38 41 41 37 33 30 27 24 21 21 21 23 24
19 19 21 22 19 17 16 13 11 11 11 9 7 10 17 20 19 16 12 9 7 9 12 16 19 22 24 27 29 32 36 40 42 41 38 35 30 27 25 23 22 21 22 23
21 24 23 20 17 15 13 13 13 12 11 8 8 13 20 22 20 17 13 9 8 10 12 15 17 19 23 27 30 33 37 41 42 41 40 38 32 28 26 25 24 23 23 23
22 23 22 21 19 17 15 14 13 11 8 7 10 17 23 24 21 17 14 10 9 9 13 16 17 20 24 27 29 33 37 40 42 42 42 40 37 32 29 28 27 26 25 25
19 21 22 22 19 18 16 14 12 10 8 8 13 21 26 26 23 19 14 11 9 8 12 14 15 17 20 24 30 34 36 39 41 42 42 42 39 35 31 30 30 30 30 30
Wind_Direction
247 245 245 241 237 238 240 246 253 258 261 266 269 266 266 266 271 276 271 275 280 279 298 305 309 313 313 312 310 309 311 313 313 311 309 306 304 303 304 305 307 310 311 311
249 251 248 244 244 244 245 247 252 255 257 259 266 269 270 269 274 279 276 276 275 291 309 310 311 313 313 312 310 312 313 313 313 310 308 307 308 307 307 309 312 313 313 314
248 250 252 251 248 252 255 257 259 261 263 264 263 266 270 277 281 285 288 287 302 311 319 315 314 313 313 312 313 314 313 313 311 307 308 310 310 310 312 314 315 314 314 315
247 247 249 251 251 251 255 258 260 260 263 266 269 271 275 280 284 285 287 296 318 322 317 313 312 312 312 311 314 314 313 311 308 308 311 313 313 314 317 318 318 317 317 316
249 250 250 249 250 252 254 256 257 259 260 262 264 267 269 275 279 279 282 292 317 318 311 309 310 310 310 313 314 314 311 308 308 311 315 315 316 319 321 320 320 320 320 317
252 253 254 252 251 251 254 257 257 260 263 264 265 267 268 268 269 275 284 293 303 304 304 305 307 309 313 315 313 310 307 307 310 314 314 317 321 323 323 324 323 323 322 321
250 249 251 253 252 253 255 258 258 259 265 265 259 258 260 259 268 280 289 296 298 301 304 307 310 313 315 313 309 306 305 308 313 315 317 322 325 326 327 327 327 328 328 328
252 252 251 251 249 251 254 254 249 248 264 253 233 241 259 268 274 279 284 290 295 299 306 310 311 311 309 306 304 304 307 313 317 319 324 327 329 331 331 331 332 332 332 330
255 254 260 258 251 254 253 247 246 249 257 247 256 276 289 285 278 282 287 291 294 299 305 307 306 306 305 303 304 307 312 317 320 325 329 332 333 333 333 334 333 332 332 332
260 258 257 261 252 248 249 241 240 240 238 246 275 285 292 276 276 281 288 290 295 299 300 300 301 303 301 302 307 314 318 321 326 332 334 335 334 334 336 336 335 336 337 339
256 254 260 255 235 230 224 221 218 229 240 243 256 271 269 269 272 283 290 292 296 295 296 299 302 301 301 308 316 320 322 326 333 337 337 336 336 336 338 338 340 342 344 345
254 224 195 193 180 151 134 150 173 201 243 240 240 250 261 270 277 281 285 287 289 294 300 301 298 301 309 318 322 324 329 334 339 339 339 339 339 340 341 341 344 347 346 346
166 149 164 165 106 54 44 129 208 269 260 240 242 252 262 269 274 274 276 285 298 305 301 295 301 312 320 324 326 333 337 340 342 342 343 344 344 344 344 345 349 351 349 345
161 171 203 220 246 286 290 278 261 256 246 243 242 247 260 273 277 281 291 302 307 299 291 301 312 322 326 328 335 340 342 345 345 346 348 348 347 349 351 353 354 355 358 359
169 166 182 194 212 228 251 254 248 247 245 246 253 256 277 291 294 298 301 304 286 270 304 314 323 331 333 337 344 345 346 350 351 352 352 351 353 356 358 359 359 0 6 11
168 173 174 180 192 220 251 267 266 269 269 271 277 284 290 292 292 290 288 180 195 309 322 331 341 342 344 345 350 353 352 354 355 355 355 356 359 2 4 4 6 7 11 14
175 187 200 215 246 270 260 252 246 239 242 258 268 272 280 289 290 262 174 168 188 315 344 352 353 354 352 352 357 360 356 357 357 358 360 2 4 6 8 9 11 14 18 19
189 198 204 202 189 196 201 213 219 210 220 235 254 274 288 291 252 178 167 170 164 22 8 4 5 0 357 360 3 4 359 356 357 359 3 6 7 8 10 13 15 18 22 25
206 209 207 200 198 193 189 207 206 185 207 234 264 279 283 249 197 171 163 159 126 42 20 16 12 5 3 4 5 5 1 357 358 2 3 3 5 9 12 15 19 21 24 27
210 218 217 214 212 197 198 211 192 185 195 232 258 275 252 208 174 161 154 144 110 47 24 25 16 8 7 8 6 3 3 3 2 3 3 2 3 7 12 17 22 26 29 31
219 224 222 220 215 199 195 193 190 192 202 235 255 257 209 171 159 156 151 141 104 47 33 31 15 10 10 10 8 6 6 8 7 5 4 4 5 9 15 20 26 31 34 35
212 212 213 215 201 186 186 188 197 201 214 235 242 214 172 161 159 156 152 135 91 48 42 31 13 8 10 12 11 11 11 10 9 6 6 7 10 15 21 26 31 36 37 37
209 209 202 186 181 187 185 190 199 206 220 226 214 186 169 164 163 157 151 132 90 58 46 29 15 11 14 15 14 14 15 13 11 11 12 14 16 21 27 32 36 39 41 40
199 194 180 172 181 187 187 192 199 209 220 220 194 177 170 166 164 158 149 128 89 66 46 29 17 14 17 19 19 18 18 17 16 17 19 20 22 27 32 37 41 44 44 43
190 189 185 184 189 190 192 198 204 212 220 214 189 178 172 166 163 156 146 128 95 71 46 32 22 22 24 24 23 22 21 21 21 23 24 26 29 33 37 41 44 48 48 47
189 184 189 193 191 190 193 198 205 213 218 206 180 173 168 164 161 156 147 130 106 71 46 34 28 29 29 30 29 28 27 26 26 27 29 32 36 42 46 48 50 52 52 51
194 191 192 194 193 195 197 200 204 207 207 188 176 173 167 164 159 156 150 136 112 71 49 40 37 38 35 36 36 35 33 33 33 33 34 37 41 46 50 53 55 55 55 55
Height
5758 5762 5763 5764 5766 5766 5766 5766 5767 5766 5767 5768 5768 5769 5768 5767 5766 5764 5760 5757 5755 5749 5746 5746 5742 5737 5732 5727 5720 5713 5705 5697 5688 5681 5673 5665 5659 5653 5647 5642 5635 5627 5620 5612
5747 5748 5752 5757 5759 5758 5756 5757 5758 5758 5761 5763 5764 5762 5760 5759 5759 5758 5753 5749 5744 5741 5739 5736 5732 5728 5722 5715 5709 5702 5694 5686 5678 5671 5664 5657 5651 5645 5639 5632 5624 5615 5606 5598
5733 5736 5738 5743 5750 5749 5748 5750 5751 5752 5755 5756 5754 5754 5752 5749 5749 5747 5744 5741 5732 5727 5726 5726 5721 5717 5710 5704 5698 5690 5683 5676 5669 5663 5657 5650 5643 5637 5630 5621 5613 5604 5594 5585
5718 5722 5723 5728 5733 5736 5735 5737 5740 5742 5744 5745 5744 5743 5742 5741 5739 5736 5733 5729 5723 5720 5718 5716 5712 5705 5701 5696 5687 5681 5675 5668 5662 5656 5650 5643 5635 5628 5619 5610 5601 5591 5582 5573
5705 5705 5706 5715 5718 5721 5722 5722 5727 5730 5731 5732 5732 5732 5731 5731 5730 5726 5722 5719 5715 5712 5710 5706 5702 5698 5693 5685 5679 5674 5668 5662 5656 5649 5643 5636 5627 5618 5609 5599 5589 5580 5570 5561
5692 5692 5693 5703 5706 5707 5709 5709 5715 5719 5720 5721 5720 5719 5719 5720 5718 5715 5713 5711 5710 5707 5702 5698 5695 5690 5683 5677 5672 5668 5663 5657 5650 5643 5636 5628 5619 5609 5600 5589 5579 5569 5559 5548
5677 5679 5683 5688 5692 5696 5700 5702 5706 5708 5707 5706 5707 5708 5707 5706 5705 5705 5706 5706 5703 5700 5696 5691 5686 5680 5675 5672 5668 5662 5657 5652 5644 5638 5630 5620 5611 5601 5591 5580 5569 5559 5548 5538
5667 5669 5674 5676 5681 5686 5689 5690 5694 5697 5696 5701 5699 5697 5699 5698 5698 5699 5699 5697 5695 5693 5688 5682 5679 5675 5672 5668 5663 5658 5653 5645 5639 5632 5622 5613 5603 5593 5583 5572 5560 5550 5541 5531
5658 5661 5663 5665 5670 5674 5677 5681 5686 5688 5688 5694 5694 5692 5692 5691 5691 5692 5691 5690 5688 5685 5681 5678 5674 5671 5667 5663 5658 5653 5647 5640 5633 5625 5615 5606 5597 5587 5577 5566 5555 5545 5536 5527
5648 5650 5651 5653 5658 5664 5666 5672 5676 5681 5681 5686 5687 5686 5686 5687 5688 5688 5686 5684 5681 5679 5675 5673 5670 5666 5663 5659 5654 5648 5642 5635 5627 5618 5609 5601 5592 5582 5572 5561 5551 5540 5531 5523
5639 5640 5641 5642 5648 5656 5663 5665 5669 5674 5676 5679 5681 5682 5684 5684 5683 5681 5679 5678 5676 5674 5672 5669 5665 5661 5659 5656 5650 5644 5637 5630 5621 5612 5604 5595 5586 5577 5567 5556 5547 5537 5529 5521
5635 5634 5636 5640 5648 5656 5659 5663 5665 5669 5672 5673 5676 5679 5679 5679 5677 5676 5675 5674 5672 5669 5666 5664 5661 5659 5657 5652 5647 5640 5632 5624 5617 5608 5599 5590 5581 5572 5561 5551 5542 5534 5525 5519
5632 5632 5636 5642 5647 5651 5654 5658 5663 5666 5667 5668 5671 5673 5674 5675 5673 5672 5671 5670 5667 5663 5662 5661 5660 5658 5654 5650 5644 5637 5628 5620 5613 5604 5595 5586 5577 5567 5557 5548 5539 5531 5523 5516
5634 5635 5639 5643 5647 5651 5654 5658 5661 5662 5663 5665 5668 5669 5669 5669 5669 5669 5667 5664 5662 5661 5661 5661 5660 5657 5652 5647 5640 5632 5625 5618 5610 5601 5593 5583 5575 5565 5555 5546 5537 5529 5521 5515
5637 5639 5644 5647 5650 5652 5654 5656 5657 5659 5660 5662 5663 5663 5664 5665 5666 5664 5663 5660 5660 5661 5662 5661 5659 5655 5650 5644 5638 5630 5622 5616 5608 5600 5591 5582 5573 5564 5554 5545 5537 5528 5521 5515
5639 5641 5643 5646 5648 5650 5650 5652 5655 5656 5657 5659 5660 5661 5662 5663 5663 5662 5660 5660 5662 5663 5663 5661 5658 5654 5648 5642 5636 5629 5621 5614 5606 5599 5591 5582 5573 5564 5555 5546 5538 5530 5524 5518
5638 5641 5644 5645 5646 5648 5649 5651 5653 5656 5657 5659 5660 5661 5661 5662 5661 5660 5661 5662 5663 5663 5662 5660 5657 5652 5647 5641 5634 5628 5620 5613 5607 5600 5592 5582 5573 5564 5555 5548 5540 5533 5526 5521
5637 5640 5642 5644 5648 5650 5651 5652 5653 5657 5657 5659 5659 5659 5660 5660 5660 5660 5662 5664 5664 5663 5662 5659 5655 5651 5646 5640 5634 5628 5620 5614 5607 5599 5591 5582 5574 5565 5557 5550 5542 5535 5529 5523
5635 5638 5640 5643 5647 5650 5651 5652 5653 5655 5656 5658 5658 5659 5659 5660 5660 5662 5663 5664 5664 5663 5662 5659 5655 5651 5646 5640 5633 5628 5622 5615 5607 5599 5591 5583 5574 5567 5560 5553 5546 5539 5533 5527
5632 5635 5638 5641 5644 5647 5648 5651 5651 5653 5655 5657 5658 5659 5659 5659 5661 5663 5664 5665 5664 5663 5662 5659 5656 5652 5646 5640 5634 5628 5623 5616 5607 5599 5591 5582 5575 5568 5562 5556 5550 5544 5538 5532
5629 5632 5635 5638 5641 5644 5645 5648 5650 5652 5654 5656 5657 5658 5658 5660 5662 5663 5664 5665 5665 5665 5663 5660 5658 5654 5648 5643 5637 5630 5623 5616 5608 5598 5590 5582 5574 5568 5563 5558 5553 5548 5543 5538
5625 5629 5631 5634 5637 5640 5642 5646 5649 5651 5653 5655 5657 5657 5658 5660 5662 5664 5665 5667 5667 5666 5664 5662 5660 5655 5650 5644 5638 5632 5625 5617 5609 5599 5590 5581 5575 5569 5565 5561 5557 5553 5548 5543
5622 5624 5626 5630 5634 5637 5641 5645 5648 5650 5652 5654 5655 5656 5658 5660 5662 5664 5667 5669 5669 5668 5666 5665 5662 5658 5653 5647 5641 5635 5628 5620 5610 5600 5592 5584 5577 5572 5567 5564 5560 5556 5552 5548
5619 5622 5625 5628 5631 5636 5640 5643 5646 5649 5651 5652 5654 5655 5657 5660 5663 5666 5669 5670 5670 5670 5669 5667 5664 5661 5656 5651 5645 5639 5631 5622 5613 5604 5595 5587 5580 5575 5571 5567 5563 5560 5557 5553
5617 5621 5625 5629 5632 5635 5639 5642 5645 5647 5649 5650 5652 5654 5656 5660 5665 5668 5671 5671 5672 5672 5671 5670 5667 5664 5660 5655 5649 5642 5635 5627 5618 5609 5600 5592 5584 5579 5575 5572 5568 5565 5562 5559
5617 5622 5626 5629 5631 5635 5638 5642 5644 5645 5647 5649 5651 5653 5657 5661 5666 5670 5672 5673 5674 5674 5673 5671 5669 5666 5663 5659 5654 5648 5641 5633 5624 5616 5607 5599 5591 5586 5582 5579 5575 5572 5569 5566
5617 5620 5624 5627 5630 5634 5637 5640 5642 5643 5645 5648 5651 5653 5657 5662 5667 5671 5673 5675 5676 5677 5676 5674 5672 5670 5668 5665 5659 5653 5647 5640 5632 5624 5616 5608 5601 5595 5590 5586 5583 5579 5576 5573